M I D A S
Marine Information and Data Acquisition System
Tripno 2164 of the Zeeleeuw from 2011-08-16 06:28:40 to 2011-08-16 14:17:33
Back to CruiseResearch ActivitiesStationsMapUnderway DataData graphs

EquipmentUnitsComments
TimeDGPSUTC
LatitudeDGPSDM.mWGS84
LongitudeDGPSDM.mWGS84
SpeedMeteo Stationm/sRelative wind speed
DirectionMeteo StationdegRelative wind direction
TemperatureMeteo Stationdeg CelciusAir temperature
PressureMeteo StationPaAtmospheric pressure
HumidityMeteo Station%Relative humidity
Missing or incorrect values are displayed as -999
Metereological data collected by the RV Zeeleeuw from 2011-08-16 06:30:26 to 2011-08-16 14:30:31
Time Latitude Longitude Speed Direction Temperature Pressure Humidity
2011-08-16 06:31 51°13.648 2°55.983 0.1 17 15.2 101790 48
2011-08-16 06:32 51°13.661 2°55.935 0.3 28 15.2 101790 48
2011-08-16 06:33 51°13.672 2°55.851 2.3 38 15.3 101780 48
2011-08-16 06:34 51°13.68 2°55.761 2.6 39 15.3 101780 49
2011-08-16 06:35 51°13.701 2°55.775 -999 36 15.3 101780 48
2011-08-16 06:36 51°13.716 2°55.781 1.9 32 15.3 101780 48
2011-08-16 06:37 51°13.727 2°55.768 0.1 263 15.3 101780 46
2011-08-16 06:38 51°13.791 2°55.674 -999 235 15.3 101780 48
2011-08-16 06:39 51°13.878 2°55.596 -999 322 15.4 101780 48
2011-08-16 06:40 51°13.976 2°55.527 -999 251 15.4 101780 48
2011-08-16 06:41 51°14.082 2°55.452 -999 332 15.5 101780 48
2011-08-16 06:42 51°14.19 2°55.37 -999 36 15.5 101780 48
2011-08-16 06:43 51°14.296 2°55.276 -999 322 15.6 101780 48
2011-08-16 06:44 51°14.399 2°55.177 -999 242 15.6 101780 48
2011-08-16 06:45 51°14.499 2°55.071 -999 242 15.7 101770 48
2011-08-16 06:46 51°14.61 2°54.921 6.6 243 15.7 101770 48
2011-08-16 06:47 51°14.744 2°54.748 6.5 238 15.8 101770 48
2011-08-16 06:48 51°14.906 2°54.55 5.9 32 15.8 101770 47
2011-08-16 06:49 51°15.074 2°54.343 6.7 31 15.8 101760 48
2011-08-16 06:50 51°15.239 2°54.128 7.2 32 15.9 101760 48
2011-08-16 06:51 51°15.411 2°53.927 6.5 37 15.9 101760 48
2011-08-16 06:52 51°15.584 2°53.726 7.9 30 15.8 101760 48
2011-08-16 06:53 51°15.768 2°53.553 5.7 237 15.8 101760 48
2011-08-16 06:54 51°15.959 2°53.408 6.2 232 15.9 101760 47
2011-08-16 06:55 51°16.143 2°53.236 6.7 241 15.9 101760 48
2011-08-16 06:56 51°16.33 2°53.079 6.5 238 16 101760 48
2011-08-16 06:57 51°16.523 2°52.943 7.7 240 16.1 101760 48
2011-08-16 06:58 51°16.712 2°52.787 7 239 16.1 101750 47
2011-08-16 06:59 51°16.896 2°52.632 6.2 235 16.2 101760 47
2011-08-16 07:00 51°17.09 2°52.518 6 238 16.2 101750 48
2011-08-16 07:01 51°17.293 2°52.523 5 243 16.2 101760 48
2011-08-16 07:02 51°17.496 2°52.534 4.1 247 16.3 101760 48
2011-08-16 07:03 51°17.657 2°52.698 0.9 10 16.3 101770 48
2011-08-16 07:04 51°17.76 2°52.96 0.1 9 16.4 101770 47
2011-08-16 07:05 51°17.896 2°53.19 0.1 2 16.5 101780 48
2011-08-16 07:06 51°18.028 2°53.414 0.1 316 16.7 101770 47
2011-08-16 07:07 51°18.154 2°53.647 0.4 -999 16.9 101770 47
2011-08-16 07:08 51°18.249 2°53.917 0.2 12 16.9 101770 46
2011-08-16 07:09 51°18.37 2°54.16 -999 16 17 101770 47
2011-08-16 07:10 51°18.482 2°54.414 0.7 345 17.1 101780 47
2011-08-16 07:11 51°18.587 2°54.675 0.3 17 17.1 101780 46
2011-08-16 07:12 51°18.681 2°54.946 0.8 4 17 101780 45
2011-08-16 07:13 51°18.783 2°55.208 0.1 14 17 101790 46
2011-08-16 07:14 51°18.848 2°55.5 2.4 10 16.9 101790 47
2011-08-16 07:15 51°18.927 2°55.781 1.9 6 16.9 101780 47
2011-08-16 07:16 51°19.003 2°56.064 2.9 5 16.8 101780 47
2011-08-16 07:17 51°19.066 2°56.355 2.1 14 16.7 101780 47
2011-08-16 07:18 51°19.156 2°56.63 2.5 9 16.6 101790 48
2011-08-16 07:19 51°19.22 2°56.921 2.4 18 16.6 101790 47
2011-08-16 07:20 51°19.288 2°57.208 1.2 354 16.5 101790 47
2011-08-16 07:21 51°19.379 2°57.477 0.1 7 16.6 101780 47
2011-08-16 07:22 51°19.469 2°57.746 1.5 3 16.7 101790 48
2011-08-16 07:23 51°19.544 2°58.023 2.1 16 16.7 101780 47
2011-08-16 07:24 51°19.609 2°58.307 1.8 15 16.7 101780 47
2011-08-16 07:25 51°19.686 2°58.586 1.8 20 16.7 101780 48
2011-08-16 07:26 51°19.766 2°58.86 3 11 16.7 101780 47
2011-08-16 07:27 51°19.854 2°59.125 1.4 22 16.7 101790 47
2011-08-16 07:28 51°19.943 2°59.387 1.9 23 16.7 101790 46
2011-08-16 07:29 51°20.019 2°59.655 2.2 23 16.7 101790 47
2011-08-16 07:30 51°20.085 2°59.926 1.8 20 16.7 101790 48
2011-08-16 07:31 51°20.147 3°0.198 1.7 15 16.7 101790 48
2011-08-16 07:32 51°20.237 3°0.447 0.3 10 16.7 101790 48
2011-08-16 07:33 51°20.31 3°0.705 2.7 9 16.7 101790 48
2011-08-16 07:34 51°20.382 3°0.964 2.2 8 16.6 101790 47
2011-08-16 07:35 51°20.463 3°1.214 3.6 14 16.6 101790 47
2011-08-16 07:36 51°20.531 3°1.473 2.6 8 16.5 101790 48
2011-08-16 07:37 51°20.589 3°1.741 0.9 19 16.5 101800 47
2011-08-16 07:38 51°20.669 3°1.993 3 17 16.6 101800 48
2011-08-16 07:39 51°20.746 3°2.255 3.1 14 16.7 101800 47
2011-08-16 07:40 51°20.805 3°2.518 4.3 17 16.7 101800 48
2011-08-16 07:41 51°20.871 3°2.782 2.2 22 16.7 101800 48
2011-08-16 07:42 51°20.949 3°3.038 3.3 22 16.6 101800 47
2011-08-16 07:43 51°21.022 3°3.294 4.1 21 16.6 101810 47
2011-08-16 07:44 51°21.082 3°3.556 2.5 17 16.6 101800 48
2011-08-16 07:45 51°21.146 3°3.818 4.3 21 16.6 101800 48
2011-08-16 07:46 51°21.203 3°4.085 1.9 21 16.6 101800 48
2011-08-16 07:47 51°21.279 3°4.342 3.1 17 16.5 101800 48
2011-08-16 07:48 51°21.345 3°4.605 2.8 22 16.6 101800 48
2011-08-16 07:49 51°21.414 3°4.87 3 22 16.6 101800 49
2011-08-16 07:50 51°21.464 3°5.149 3.7 14 16.6 101800 48
2011-08-16 07:51 51°21.513 3°5.43 4.4 15 16.6 101800 48
2011-08-16 07:52 51°21.579 3°5.7 2.9 20 16.6 101800 48
2011-08-16 07:53 51°21.632 3°5.982 3.9 13 16.5 101800 47
2011-08-16 07:54 51°21.695 3°6.259 4.1 17 16.5 101790 47
2011-08-16 07:55 51°21.746 3°6.545 3.8 14 16.5 101790 48
2011-08-16 07:56 51°21.783 3°6.837 4.3 24 16.4 101790 48
2011-08-16 07:57 51°21.815 3°7.128 4.4 20 16.5 101790 47
2011-08-16 07:58 51°21.867 3°7.411 3.2 23 16.5 101800 47
2011-08-16 07:59 51°21.935 3°7.682 2.6 30 16.5 101800 47
2011-08-16 08:00 51°21.995 3°7.955 3.2 21 16.5 101800 48
2011-08-16 08:01 51°22.041 3°8.235 3.3 20 16.6 101800 47
2011-08-16 08:02 51°22.102 3°8.506 2 10 16.6 101790 47
2011-08-16 08:03 51°22.16 3°8.783 1.7 9 16.6 101800 46
2011-08-16 08:04 51°22.221 3°9.056 4.2 11 16.7 101800 47
2011-08-16 08:05 51°22.254 3°9.341 5.4 12 16.7 101800 46
2011-08-16 08:06 51°22.273 3°9.63 4.5 4 16.6 101800 46
2011-08-16 08:07 51°22.307 3°9.918 4.3 19 16.7 101800 47
2011-08-16 08:08 51°22.33 3°10.209 4.7 20 16.7 101800 48
2011-08-16 08:09 51°22.354 3°10.5 3.1 20 16.6 101800 47
2011-08-16 08:10 51°22.384 3°10.791 4.8 15 16.7 101800 47
2011-08-16 08:11 51°22.376 3°11.088 4.5 21 16.6 101800 47
2011-08-16 08:12 51°22.377 3°11.375 3.4 27 16.7 101800 46
2011-08-16 08:13 51°22.383 3°11.674 3.5 17 16.7 101800 46
2011-08-16 08:14 51°22.385 3°11.945 5 31 16.8 101800 46
2011-08-16 08:15 51°22.41 3°12.186 2.5 34 16.7 101810 46
2011-08-16 08:16 51°22.442 3°12.423 2.9 28 16.7 101800 47
2011-08-16 08:17 51°22.466 3°12.649 2.8 39 16.8 101810 46
2011-08-16 08:18 51°22.493 3°12.839 3.3 35 16.9 101800 47
2011-08-16 08:19 51°22.516 3°13.024 4 43 16.8 101800 45
2011-08-16 08:20 51°22.543 3°13.189 4.4 35 16.8 101800 46
2011-08-16 08:21 51°22.58 3°13.249 5.8 39 16.8 101800 46
2011-08-16 08:22 51°22.622 3°13.24 7.1 268 16.9 101790 46
2011-08-16 08:23 51°22.636 3°13.207 6.8 262 16.9 101790 46
2011-08-16 08:24 51°22.647 3°13.172 7.1 259 16.9 101790 47
2011-08-16 08:25 51°22.654 3°13.138 8.7 260 16.9 101790 46
2011-08-16 08:26 51°22.662 3°13.107 7.5 257 17 101790 47
2011-08-16 08:27 51°22.668 3°13.079 8 259 17.1 101780 46
2011-08-16 08:28 51°22.674 3°13.052 7.7 256 17 101790 46
2011-08-16 08:29 51°22.727 3°12.97 8.8 240 17.1 101780 46
2011-08-16 08:30 51°22.86 3°12.804 8.2 243 17.1 101760 46
2011-08-16 08:31 51°23.048 3°12.66 8.7 240 17 101770 46
2011-08-16 08:32 51°23.232 3°12.509 9 241 17 101770 46
2011-08-16 08:33 51°23.425 3°12.365 8.5 239 17 101780 46
2011-08-16 08:34 51°23.6 3°12.186 4.4 33 17.1 101780 47
2011-08-16 08:35 51°23.763 3°11.965 12.3 238 17 101760 46
2011-08-16 08:36 51°23.924 3°11.733 9.8 236 17 101760 46
2011-08-16 08:37 51°24.087 3°11.499 4.4 237 17 101760 46
2011-08-16 08:38 51°24.208 3°11.194 6.2 36 17 101740 46
2011-08-16 08:39 51°24.26 3°10.841 11.4 33 17 101740 45
2011-08-16 08:40 51°24.314 3°10.476 6.5 36 17 101740 46
2011-08-16 08:41 51°24.365 3°10.127 11.8 34 16.9 101750 46
2011-08-16 08:42 51°24.433 3°9.777 12.8 35 16.9 101740 46
2011-08-16 08:43 51°24.495 3°9.436 10.2 37 16.9 101740 46
2011-08-16 08:44 51°24.564 3°9.099 5.8 36 17 101730 47
2011-08-16 08:45 51°24.632 3°8.774 12.6 30 16.9 101740 46
2011-08-16 08:46 51°24.72 3°8.479 9.7 33 16.9 101740 47
2011-08-16 08:47 51°24.835 3°8.2 10.6 237 16.9 101750 47
2011-08-16 08:48 51°24.981 3°7.999 7.9 244 16.9 101750 46
2011-08-16 08:49 51°25.16 3°7.951 6 253 17 101760 47
2011-08-16 08:50 51°25.345 3°7.956 2 265 17 101770 47
2011-08-16 08:51 51°25.527 3°8.01 3 266 17.1 101770 47
2011-08-16 08:52 51°25.699 3°8.11 3 261 17.2 101770 47
2011-08-16 08:53 51°25.871 3°8.206 3.1 260 17.2 101770 46
2011-08-16 08:54 51°26.042 3°8.258 3.5 263 17.2 101780 47
2011-08-16 08:55 51°26.18 3°8.301 3.2 34 17.1 101780 46
2011-08-16 08:56 51°26.304 3°8.337 3.9 263 17.2 101770 46
2011-08-16 08:57 51°26.379 3°8.331 4.8 33 17.1 101760 46
2011-08-16 08:58 51°26.423 3°8.352 5.1 33 17.1 101770 46
2011-08-16 08:59 51°26.442 3°8.361 4.8 34 17 101770 46
2011-08-16 09:00 51°26.445 3°8.37 5.5 32 16.9 101760 46
2011-08-16 09:01 51°26.444 3°8.372 5.7 40 16.9 101760 47
2011-08-16 09:02 51°26.441 3°8.37 5.7 33 16.8 101760 47
2011-08-16 09:03 51°26.436 3°8.364 5.7 38 16.9 101750 47
2011-08-16 09:04 51°26.428 3°8.356 5.9 35 16.8 101750 47
2011-08-16 09:05 51°26.425 3°8.342 4 267 16.9 101740 47
2011-08-16 09:06 51°26.493 3°8.195 6.9 240 17.1 101740 47
2011-08-16 09:07 51°26.606 3°7.942 10.9 237 17.1 101740 46
2011-08-16 09:08 51°26.708 3°7.666 8.1 235 17.1 101730 46
2011-08-16 09:09 51°26.815 3°7.387 10.5 33 17.1 101730 46
2011-08-16 09:10 51°26.934 3°7.124 11.3 234 17.1 101730 46
2011-08-16 09:11 51°27.029 3°6.83 4.4 38 17.1 101730 46
2011-08-16 09:12 51°27.123 3°6.528 10.3 235 17.2 101730 46
2011-08-16 09:13 51°27.224 3°6.244 11.8 232 17.1 101720 45
2011-08-16 09:14 51°27.332 3°5.953 4.4 37 17.2 101720 44
2011-08-16 09:15 51°27.43 3°5.661 9.3 236 17.2 101720 44
2011-08-16 09:16 51°27.534 3°5.368 10.2 35 17.3 101720 45
2011-08-16 09:17 51°27.643 3°5.082 5 35 17.3 101720 44
2011-08-16 09:18 51°27.755 3°4.79 9 236 17.3 101720 42
2011-08-16 09:19 51°27.857 3°4.498 12 33 17.3 101720 43
2011-08-16 09:20 51°27.979 3°4.221 8.7 236 17.3 101720 44
2011-08-16 09:21 51°28.098 3°3.932 8.4 34 17.3 101720 44
2011-08-16 09:22 51°28.194 3°3.711 8.2 241 17.3 101730 44
2011-08-16 09:23 51°28.248 3°3.549 7.2 242 17.4 101740 44
2011-08-16 09:24 51°28.271 3°3.461 7.5 249 17.4 101750 45
2011-08-16 09:25 51°28.263 3°3.425 7.4 249 17.5 101750 44
2011-08-16 09:26 51°28.254 3°3.395 7 246 17.5 101750 42
2011-08-16 09:27 51°28.245 3°3.37 7.6 255 17.6 101750 44
2011-08-16 09:28 51°28.234 3°3.348 7 261 17.5 101750 43
2011-08-16 09:29 51°28.223 3°3.325 5 265 17.5 101750 43
2011-08-16 09:30 51°28.215 3°3.3 7 257 17.6 101750 43
2011-08-16 09:31 51°28.213 3°3.192 12 324 17.6 101740 44
2011-08-16 09:32 51°28.155 3°2.909 12.9 325 17.5 101740 42
2011-08-16 09:33 51°28.094 3°2.549 11.3 322 17.4 101730 43
2011-08-16 09:34 51°28.038 3°2.183 11.6 324 17.5 101730 42
2011-08-16 09:35 51°27.965 3°1.821 6.1 322 17.5 101720 43
2011-08-16 09:36 51°27.913 3°1.45 9.5 326 17.4 101730 44
2011-08-16 09:37 51°27.84 3°1.083 13.7 324 17.5 101730 45
2011-08-16 09:38 51°27.784 3°0.71 11.2 322 17.4 101730 45
2011-08-16 09:39 51°27.729 3°0.337 12.1 322 17.5 101730 44
2011-08-16 09:40 51°27.659 2°59.97 12.4 322 17.5 101730 45
2011-08-16 09:41 51°27.596 2°59.602 10.4 322 17.4 101720 44
2011-08-16 09:42 51°27.533 2°59.237 6.1 323 17.4 101720 42
2011-08-16 09:43 51°27.459 2°58.876 10.7 323 17.4 101730 45
2011-08-16 09:44 51°27.401 2°58.51 10.2 322 17.5 101720 45
2011-08-16 09:45 51°27.334 2°58.148 16.5 322 17.5 101730 45
2011-08-16 09:46 51°27.267 2°57.787 15.1 323 17.4 101710 43
2011-08-16 09:47 51°27.214 2°57.419 12.5 321 17.4 101720 44
2011-08-16 09:48 51°27.146 2°57.055 11.7 320 17.4 101710 44
2011-08-16 09:49 51°27.086 2°56.688 12.1 324 17.4 101720 45
2011-08-16 09:50 51°27.01 2°56.323 10.8 324 17.4 101720 45
2011-08-16 09:51 51°26.926 2°55.96 12.1 320 17.4 101710 45
2011-08-16 09:52 51°26.845 2°55.601 17.1 319 17.4 101710 44
2011-08-16 09:53 51°26.777 2°55.237 15 320 17.4 101710 44
2011-08-16 09:54 51°26.699 2°54.875 11.2 321 17.5 101720 46
2011-08-16 09:55 51°26.636 2°54.504 13.6 319 17.4 101720 45
2011-08-16 09:56 51°26.566 2°54.135 14.5 321 17.5 101720 45
2011-08-16 09:57 51°26.493 2°53.775 11.8 320 17.4 101720 45
2011-08-16 09:58 51°26.439 2°53.409 11.2 320 17.4 101710 45
2011-08-16 09:59 51°26.376 2°53.044 6.2 321 17.4 101710 44
2011-08-16 10:00 51°26.315 2°52.675 15.5 320 17.4 101700 43
2011-08-16 10:01 51°26.263 2°52.302 17 320 17.4 101710 44
2011-08-16 10:02 51°26.199 2°51.934 10.5 319 17.3 101710 43
2011-08-16 10:03 51°26.142 2°51.564 13.8 321 17.4 101710 45
2011-08-16 10:04 51°26.084 2°51.197 15.7 318 17.4 101700 44
2011-08-16 10:05 51°26.037 2°50.824 17.2 319 17.4 101700 44
2011-08-16 10:06 51°25.99 2°50.452 13.8 319 17.3 101690 43
2011-08-16 10:07 51°25.95 2°50.077 15.4 316 17.4 101700 44
2011-08-16 10:08 51°25.92 2°49.701 13.3 318 17.3 101700 43
2011-08-16 10:09 51°25.881 2°49.371 11.7 318 17.4 101690 44
2011-08-16 10:10 51°25.876 2°49.143 8.5 235 17.4 101710 44
2011-08-16 10:11 51°25.912 2°48.96 8.2 246 17.3 101710 43
2011-08-16 10:12 51°25.962 2°48.796 9.2 249 17.3 101720 44
2011-08-16 10:13 51°25.998 2°48.653 8.6 247 17.4 101720 45
2011-08-16 10:14 51°26.017 2°48.54 7.4 245 17.4 101720 44
2011-08-16 10:15 51°26.012 2°48.496 7 22 17.4 101720 43
2011-08-16 10:16 51°26.005 2°48.471 8.8 246 17.5 101720 43
2011-08-16 10:17 51°25.998 2°48.451 10 257 17.5 101730 43
2011-08-16 10:18 51°25.99 2°48.434 6.5 262 17.6 101730 44
2011-08-16 10:19 51°25.982 2°48.417 4.5 265 17.5 101730 44
2011-08-16 10:20 51°25.973 2°48.401 6 264 17.5 101740 45
2011-08-16 10:21 51°25.965 2°48.388 6 269 17.5 101730 45
2011-08-16 10:22 51°25.956 2°48.375 6.5 269 17.5 101740 45
2011-08-16 10:23 51°25.947 2°48.36 4.9 266 17.5 101730 44
2011-08-16 10:24 51°25.954 2°48.311 6.8 25 17.5 101730 42
2011-08-16 10:25 51°25.931 2°48.159 10.1 324 17.6 101720 44
2011-08-16 10:26 51°25.843 2°47.902 14.7 323 17.6 101710 43
2011-08-16 10:27 51°25.721 2°47.596 11.8 325 17.7 101700 44
2011-08-16 10:28 51°25.61 2°47.278 6.4 322 17.7 101700 44
2011-08-16 10:29 51°25.496 2°46.966 6.4 321 17.7 101700 43
2011-08-16 10:30 51°25.384 2°46.642 13.5 324 17.7 101700 43
2011-08-16 10:31 51°25.271 2°46.328 13.6 325 17.8 101710 43
2011-08-16 10:32 51°25.151 2°46.018 13.2 324 17.7 101710 42
2011-08-16 10:33 51°25.037 2°45.702 6.6 323 17.8 101710 43
2011-08-16 10:34 51°24.926 2°45.384 4.4 325 17.7 101710 41
2011-08-16 10:35 51°24.808 2°45.067 6 323 17.8 101710 42
2011-08-16 10:36 51°24.689 2°44.752 2.6 327 17.8 101710 42
2011-08-16 10:37 51°24.581 2°44.428 12.7 321 17.8 101700 42
2011-08-16 10:38 51°24.468 2°44.107 6.6 326 17.8 101700 42
2011-08-16 10:39 51°24.358 2°43.781 14.5 323 17.8 101700 42
2011-08-16 10:40 51°24.239 2°43.464 17 324 17.9 101700 40
2011-08-16 10:41 51°24.128 2°43.14 13.9 323 17.9 101710 42
2011-08-16 10:42 51°24.021 2°42.816 4.2 325 18 101690 41
2011-08-16 10:43 51°23.901 2°42.505 13.1 325 17.9 101710 41
2011-08-16 10:44 51°23.791 2°42.185 13.3 323 17.9 101700 42
2011-08-16 10:45 51°23.675 2°41.874 10.2 325 18 101700 42
2011-08-16 10:46 51°23.57 2°41.553 6.5 326 18 101710 43
2011-08-16 10:47 51°23.471 2°41.226 6.4 323 17.9 101700 43
2011-08-16 10:48 51°23.366 2°40.908 10.2 323 17.9 101690 42
2011-08-16 10:49 51°23.26 2°40.591 5.6 322 18 101700 42
2011-08-16 10:50 51°23.166 2°40.266 12.5 325 18 101700 43
2011-08-16 10:51 51°23.071 2°39.941 6.4 322 18 101700 43
2011-08-16 10:52 51°23.002 2°39.599 12.6 323 17.9 101700 42
2011-08-16 10:53 51°22.915 2°39.264 15.2 321 18 101700 41
2011-08-16 10:54 51°22.831 2°38.926 14.9 324 18 101710 42
2011-08-16 10:55 51°22.754 2°38.586 16.1 321 18 101700 41
2011-08-16 10:56 51°22.692 2°38.239 13.9 320 18 101700 42
2011-08-16 10:57 51°22.626 2°37.893 12.6 323 18 101700 42
2011-08-16 10:58 51°22.553 2°37.553 16.4 322 18 101700 41
2011-08-16 10:59 51°22.487 2°37.209 5.4 323 18 101700 42
2011-08-16 11:00 51°22.415 2°36.869 13.8 323 18.1 101700 43
2011-08-16 11:01 51°22.311 2°36.551 12 324 18.1 101710 43
2011-08-16 11:02 51°22.207 2°36.234 11.4 324 18.1 101700 43
2011-08-16 11:03 51°22.107 2°35.916 14.3 325 18 101700 43
2011-08-16 11:04 51°21.991 2°35.611 6.2 326 18 101700 41
2011-08-16 11:05 51°21.878 2°35.308 13.2 327 18 101700 42
2011-08-16 11:06 51°21.736 2°35.036 5.9 330 18 101700 43
2011-08-16 11:07 51°21.591 2°34.765 15 329 18 101700 42
2011-08-16 11:08 51°21.465 2°34.476 11.2 329 18 101700 42
2011-08-16 11:09 51°21.341 2°34.182 14.2 328 18 101700 43
2011-08-16 11:10 51°21.21 2°33.898 13 328 18 101690 43
2011-08-16 11:11 51°21.073 2°33.619 5.8 330 18 101690 43
2011-08-16 11:12 51°20.953 2°33.323 12.1 329 18 101700 43
2011-08-16 11:13 51°20.818 2°33.041 5.6 330 18 101690 43
2011-08-16 11:14 51°20.679 2°32.762 13.2 329 18 101690 43
2011-08-16 11:15 51°20.554 2°32.469 12 327 18 101700 44
2011-08-16 11:16 51°20.429 2°32.176 12.5 328 18 101690 43
2011-08-16 11:17 51°20.3 2°31.886 12.4 329 18.1 101700 44
2011-08-16 11:18 51°20.165 2°31.604 4.4 331 18.1 101690 44
2011-08-16 11:19 51°20.062 2°31.296 9.5 323 18 101690 43
2011-08-16 11:20 51°20.002 2°30.965 12.6 326 18.1 101700 43
2011-08-16 11:21 51°19.935 2°30.639 11 327 18.1 101700 45
2011-08-16 11:22 51°19.861 2°30.329 14 327 18 101700 44
2011-08-16 11:23 51°19.843 2°30.157 8.1 234 18 101700 44
2011-08-16 11:24 51°19.891 2°30.085 7.6 244 18 101700 44
2011-08-16 11:25 51°19.949 2°30.011 7 250 18.1 101700 44
2011-08-16 11:26 51°19.992 2°29.986 5.8 261 18.1 101710 44
2011-08-16 11:27 51°20.004 2°29.994 7.2 37 18 101700 43
2011-08-16 11:28 51°20.015 2°30.007 5.1 37 18 101700 41
2011-08-16 11:29 51°20.023 2°30.019 4.6 265 18 101700 43
2011-08-16 11:30 51°20.027 2°30.03 6.2 261 18 101700 44
2011-08-16 11:31 51°20.031 2°30.041 5.8 257 18.1 101700 45
2011-08-16 11:32 51°20.032 2°30.055 9.3 255 18.1 101700 44
2011-08-16 11:33 51°20.034 2°30.069 6.8 260 18.1 101700 44
2011-08-16 11:34 51°20.048 2°30.074 4.9 263 18.2 101700 43
2011-08-16 11:35 51°20.092 2°30.152 3.4 40 18.2 101710 44
2011-08-16 11:36 51°20.036 2°30.349 6.7 10 18.2 101710 43
2011-08-16 11:37 51°19.935 2°30.645 6 2 18 101700 42
2011-08-16 11:38 51°19.804 2°30.919 6.5 7 18 101700 44
2011-08-16 11:39 51°19.676 2°31.195 5.1 4 17.8 101710 44
2011-08-16 11:40 51°19.535 2°31.454 7.4 10 17.8 101700 45
2011-08-16 11:41 51°19.393 2°31.71 5.1 7 17.8 101700 45
2011-08-16 11:42 51°19.248 2°31.964 6.7 4 17.7 101710 44
2011-08-16 11:43 51°19.109 2°32.227 6.1 5 17.8 101700 44
2011-08-16 11:44 51°18.974 2°32.493 6.4 5 17.8 101700 43
2011-08-16 11:45 51°18.833 2°32.75 7.2 7 17.8 101690 44
2011-08-16 11:46 51°18.7 2°33.018 4.5 5 17.8 101690 44
2011-08-16 11:47 51°18.565 2°33.285 5.3 2 17.8 101690 44
2011-08-16 11:48 51°18.433 2°33.558 5.9 1 17.8 101690 44
2011-08-16 11:49 51°18.298 2°33.832 6.3 4 17.8 101690 44
2011-08-16 11:50 51°18.159 2°34.095 6.7 2 17.8 101690 43
2011-08-16 11:51 51°18.011 2°34.346 6.1 359 17.8 101690 44
2011-08-16 11:52 51°17.856 2°34.581 6.7 356 17.8 101690 44
2011-08-16 11:53 51°17.706 2°34.826 6.3 354 17.8 101690 44
2011-08-16 11:54 51°17.544 2°35.058 6.5 355 17.8 101690 44
2011-08-16 11:55 51°17.391 2°35.311 6.9 355 17.8 101690 45
2011-08-16 11:56 51°17.227 2°35.552 6.8 356 17.8 101690 44
2011-08-16 11:57 51°17.056 2°35.773 6.9 355 17.8 101680 44
2011-08-16 11:58 51°16.886 2°35.992 5.8 356 17.8 101690 44
2011-08-16 11:59 51°16.726 2°36.224 7.2 354 17.8 101690 44
2011-08-16 12:00 51°16.574 2°36.448 4.2 8 17.8 101680 44
2011-08-16 12:01 51°16.555 2°36.618 -999 38 17.8 101700 43
2011-08-16 12:02 51°16.577 2°36.719 3 39 17.9 101690 44
2011-08-16 12:03 51°16.588 2°36.805 2.2 37 18.1 101690 44
2011-08-16 12:04 51°16.586 2°36.83 -999 36 18.7 101690 45
2011-08-16 12:05 51°16.585 2°36.856 3.8 36 18.7 101690 42
2011-08-16 12:06 51°16.584 2°36.887 1.8 37 18.5 101690 41
2011-08-16 12:07 51°16.584 2°36.921 4.4 38 18.4 101690 43
2011-08-16 12:08 51°16.585 2°36.957 2.5 37 18.3 101690 44
2011-08-16 12:09 51°16.586 2°36.995 4 37 18.4 101690 44
2011-08-16 12:10 51°16.587 2°37.034 4.4 33 18.2 101680 43
2011-08-16 12:11 51°16.589 2°37.072 4.6 34 18.2 101680 45
2011-08-16 12:12 51°16.59 2°37.111 4.7 34 18 101680 44
2011-08-16 12:13 51°16.587 2°37.159 4.7 29 18 101680 45
2011-08-16 12:14 51°16.517 2°37.303 3.2 6 18 101680 44
2011-08-16 12:15 51°16.406 2°37.589 4.3 359 18 101670 46
2011-08-16 12:16 51°16.29 2°37.885 5.3 358 17.9 101670 45
2011-08-16 12:17 51°16.16 2°38.18 4.4 356 17.9 101670 45
2011-08-16 12:18 51°16.049 2°38.501 5.4 353 17.9 101670 46
2011-08-16 12:19 51°15.924 2°38.806 5.4 355 17.9 101670 45
2011-08-16 12:20 51°15.796 2°39.101 4.7 355 17.8 101670 46
2011-08-16 12:21 51°15.678 2°39.402 4.7 359 17.8 101670 45
2011-08-16 12:22 51°15.54 2°39.673 5.3 359 17.8 101670 44
2011-08-16 12:23 51°15.403 2°39.945 4.6 360 17.8 101670 46
2011-08-16 12:24 51°15.275 2°40.233 4.3 355 17.8 101670 45
2011-08-16 12:25 51°15.141 2°40.514 4.4 354 17.9 101670 46
2011-08-16 12:26 51°15.009 2°40.803 4.6 355 17.9 101670 45
2011-08-16 12:27 51°14.868 2°41.079 5.3 356 17.9 101670 46
2011-08-16 12:28 51°14.743 2°41.374 4.9 349 17.9 101670 46
2011-08-16 12:29 51°14.611 2°41.662 4.2 349 17.9 101670 46
2011-08-16 12:30 51°14.482 2°41.953 4.5 350 17.9 101660 44
2011-08-16 12:31 51°14.303 2°42.113 8.3 348 17.9 101660 46
2011-08-16 12:32 51°14.111 2°42.069 9.9 346 17.9 101650 45
2011-08-16 12:33 51°13.917 2°42.027 7 345 17.9 101650 45
2011-08-16 12:34 51°13.721 2°42 7.8 346 17.9 101650 45
2011-08-16 12:35 51°13.523 2°41.981 6.7 350 17.9 101650 45
2011-08-16 12:36 51°13.326 2°41.964 6.8 348 17.9 101650 45
2011-08-16 12:37 51°13.128 2°41.961 6.2 350 17.9 101650 45
2011-08-16 12:38 51°12.93 2°41.95 7.6 347 17.9 101650 44
2011-08-16 12:39 51°12.732 2°41.939 8 346 17.9 101650 45
2011-08-16 12:40 51°12.535 2°41.936 9.4 348 17.9 101650 45
2011-08-16 12:41 51°12.338 2°41.939 7.8 347 17.9 101650 46
2011-08-16 12:42 51°12.144 2°41.925 6 348 17.9 101650 45
2011-08-16 12:43 51°11.954 2°41.863 5.8 346 18 101650 45
2011-08-16 12:44 51°11.777 2°41.76 7.3 345 18 101640 46
2011-08-16 12:45 51°11.59 2°41.711 7.1 351 18 101650 45
2011-08-16 12:46 51°11.395 2°41.76 7.9 350 18 101650 44
2011-08-16 12:47 51°11.199 2°41.785 6.2 351 18 101650 45
2011-08-16 12:48 51°11.061 2°41.865 2 23 17.9 101660 45
2011-08-16 12:49 51°11.045 2°42.007 2.2 38 18 101660 45
2011-08-16 12:50 51°11.08 2°42.114 3.9 256 18.2 101660 45
2011-08-16 12:51 51°11.085 2°42.166 2.6 269 18.3 101660 46
2011-08-16 12:52 51°11.088 2°42.213 3.4 37 18.5 101670 46
2011-08-16 12:53 51°11.094 2°42.261 3.6 42 18.5 101660 45
2011-08-16 12:54 51°11.1 2°42.311 3.6 38 18.5 101660 42
2011-08-16 12:55 51°11.108 2°42.364 2.9 41 18.6 101660 44
2011-08-16 12:56 51°11.121 2°42.431 0.1 267 18.5 101660 43
2011-08-16 12:57 51°11.216 2°42.58 6.3 38 18.6 101660 45
2011-08-16 12:58 51°11.398 2°42.791 5.7 33 18.6 101650 43
2011-08-16 12:59 51°11.591 2°43.002 7.1 34 18.6 101650 44
2011-08-16 13:00 51°11.776 2°43.237 6.1 38 18.5 101650 44
2011-08-16 13:01 51°11.962 2°43.464 6.1 315 18.5 101650 43
2011-08-16 13:02 51°12.161 2°43.661 7 38 18.4 101650 43
2011-08-16 13:03 51°12.351 2°43.892 4.8 31 18.4 101650 43
2011-08-16 13:04 51°12.535 2°44.134 5.5 34 18.4 101650 43
2011-08-16 13:05 51°12.73 2°44.353 5.7 32 18.4 101660 42
2011-08-16 13:06 51°12.918 2°44.593 6.5 39 18.4 101650 43
2011-08-16 13:07 51°13.114 2°44.813 6.4 38 18.4 101640 43
2011-08-16 13:08 51°13.309 2°45.028 6.1 32 18.4 101650 43
2011-08-16 13:09 51°13.495 2°45.254 5.2 39 18.4 101650 42
2011-08-16 13:10 51°13.675 2°45.489 7 231 18.4 101650 41
2011-08-16 13:11 51°13.869 2°45.692 7.5 38 18.4 101650 42
2011-08-16 13:12 51°14.055 2°45.924 7.1 32 18.4 101650 41
2011-08-16 13:13 51°14.244 2°46.153 4.9 37 18.4 101650 42
2011-08-16 13:14 51°14.432 2°46.384 6.7 231 18.4 101650 42
2011-08-16 13:15 51°14.619 2°46.616 5.8 36 18.4 101650 42
2011-08-16 13:16 51°14.796 2°46.867 5.2 37 18.4 101650 42
2011-08-16 13:17 51°14.986 2°47.081 6.1 34 18.3 101650 41
2011-08-16 13:18 51°15.17 2°47.313 5.3 231 18.4 101650 40
2011-08-16 13:19 51°15.359 2°47.536 6.9 32 18.4 101650 43
2011-08-16 13:20 51°15.538 2°47.786 5.9 38 18.4 101640 43
2011-08-16 13:21 51°15.724 2°48.021 6.3 40 18.4 101640 43
2011-08-16 13:22 51°15.912 2°48.264 7.3 34 18.4 101640 43
2011-08-16 13:23 51°16.106 2°48.491 7.3 40 18.4 101640 44
2011-08-16 13:24 51°16.3 2°48.726 6.7 31 18.3 101630 44
2011-08-16 13:25 51°16.491 2°48.97 6.4 32 18.3 101630 43
2011-08-16 13:26 51°16.69 2°49.197 6.9 40 18.3 101630 42
2011-08-16 13:27 51°16.883 2°49.433 5.8 38 18.3 101630 43
2011-08-16 13:28 51°14.598 2°49.572 -999 8 14.9 101750 48
2011-08-16 13:28 51°17.08 2°49.655 6.4 33 18.3 101640 44
2011-08-16 13:29 51°17.277 2°49.869 6.3 233 18.3 101630 43
2011-08-16 13:30 51°17.472 2°50.09 7 35 18.3 101630 44
2011-08-16 13:31 51°17.66 2°50.325 5 32 18.3 101630 43
2011-08-16 13:32 51°17.857 2°50.536 6.6 39 18.3 101630 44
2011-08-16 13:33 51°18.061 2°50.73 6.1 34 18.2 101620 43
2011-08-16 13:34 51°18.248 2°50.923 6.5 31 18.3 101630 42
2011-08-16 13:35 51°18.381 2°51.01 5 242 18.3 101630 44
2011-08-16 13:36 51°18.461 2°51.037 5 231 18.3 101630 43
2011-08-16 13:37 51°18.501 2°51.061 2.6 239 18.3 101640 42
2011-08-16 13:38 51°18.517 2°51.108 4.6 247 18.4 101640 43
2011-08-16 13:39 51°18.533 2°51.148 3.8 251 18.5 101630 43
2011-08-16 13:40 51°18.551 2°51.189 4.2 251 18.6 101630 43
2011-08-16 13:41 51°18.571 2°51.233 5.3 258 18.7 101630 44
2011-08-16 13:42 51°18.614 2°51.359 0.3 35 18.8 101630 41
2011-08-16 13:43 51°18.528 2°51.548 3.6 1 18.8 101630 43
2011-08-16 13:44 51°18.366 2°51.745 4.7 350 18.6 101630 43
2011-08-16 13:45 51°18.192 2°51.92 4.5 347 18.3 101620 44
2011-08-16 13:46 51°18.021 2°52.106 4.2 352 18.1 101620 43
2011-08-16 13:47 51°17.854 2°52.303 5.3 352 18 101620 44
2011-08-16 13:48 51°17.689 2°52.5 3.8 349 18 101630 45
2011-08-16 13:49 51°17.519 2°52.686 4.6 352 18 101620 45
2011-08-16 13:50 51°17.353 2°52.884 3.8 354 17.9 101630 44
2011-08-16 13:51 51°17.182 2°53.063 5.1 354 17.9 101620 45
2011-08-16 13:52 51°17.012 2°53.249 4.3 354 17.9 101620 44
2011-08-16 13:53 51°16.845 2°53.44 4.3 354 17.9 101620 45
2011-08-16 13:54 51°16.672 2°53.624 5.3 356 17.9 101620 44
2011-08-16 13:55 51°16.494 2°53.792 4.2 353 18 101620 44
2011-08-16 13:56 51°16.321 2°53.981 4.4 355 18 101620 44
2011-08-16 13:57 51°16.168 2°54.132 2 15 18 101620 45
2011-08-16 13:58 51°16.151 2°54.282 2 266 18.1 101620 46
2011-08-16 13:59 51°16.204 2°54.378 4.3 24 18.2 101620 46
2011-08-16 14:00 51°16.251 2°54.415 4.5 242 18.3 101610 44
2011-08-16 14:01 51°16.266 2°54.459 3.7 251 18.4 101610 44
2011-08-16 14:02 51°16.282 2°54.505 5 254 18.5 101610 44
2011-08-16 14:03 51°16.298 2°54.548 5.7 258 18.6 101610 44
2011-08-16 14:04 51°16.313 2°54.594 3.7 262 18.7 101610 43
2011-08-16 14:05 51°16.329 2°54.642 3.2 262 18.7 101610 43
2011-08-16 14:06 51°16.338 2°54.769 0.2 12 18.7 101610 43
2011-08-16 14:07 51°16.242 2°54.815 4.6 2 18.6 101600 43
2011-08-16 14:08 51°16.109 2°54.834 4.5 360 18.4 101600 43
2011-08-16 14:09 51°15.969 2°54.852 4.3 1 18.3 101610 45
2011-08-16 14:10 51°15.796 2°54.866 6.1 355 18.1 101600 44
2011-08-16 14:11 51°15.603 2°54.873 3.3 352 18.1 101600 44
2011-08-16 14:12 51°15.411 2°54.88 5.8 353 18 101600 45
2011-08-16 14:13 51°15.218 2°54.893 6.8 352 18 101600 45
2011-08-16 14:14 51°15.029 2°54.911 6.3 351 17.9 101600 45
2011-08-16 14:15 51°14.84 2°54.939 5.1 350 17.9 101610 45
2011-08-16 14:16 51°14.651 2°55.009 4.7 354 18 101610 45
2011-08-16 14:17 51°14.464 2°55.113 4.7 358 18 101610 45
2011-08-16 14:18 51°14.323 2°55.249 3.1 8 18 101610 45
2011-08-16 14:19 51°14.215 2°55.346 2.4 9 18 101610 46
2011-08-16 14:20 51°14.119 2°55.42 2.6 6 18.1 101610 44
2011-08-16 14:21 51°14.035 2°55.481 1.6 29 18.3 101610 45
2011-08-16 14:22 51°13.948 2°55.543 1.9 355 18.5 101610 45
2011-08-16 14:23 51°13.857 2°55.607 1.3 16 18.7 101600 44
2011-08-16 14:24 51°13.777 2°55.683 0.5 42 18.8 101600 43
2011-08-16 14:25 51°13.717 2°55.781 -999 25 18.9 101600 43
2011-08-16 14:26 51°13.674 2°55.871 1.6 24 18.9 101600 42
2011-08-16 14:27 51°13.649 2°55.952 2.7 21 18.9 101600 42
2011-08-16 14:28 51°13.642 2°56 3.3 22 18.8 101600 43
2011-08-16 14:29 51°13.639 2°56.01 3.5 21 18.7 101590 41